Location: Newark
(42.7133°N, 87.7910°W)
Time: 18:00:00
(UTC+00:00)

Vanguard 1 - Pass Details

Date: 29 September 2019
Orbit: 653 x 3830 km, 34.2° (Epoch: 22 October)

Event Time Altitude Azimuth Distance (km) Brightness Sun altitude
Rises 04:58:54 0° 224° (SW) 6,498 - -48.5°
Reaches altitude 10° 05:02:52 10° 219° (SW) 5,830 - -48.7°
Maximum altitude 05:21:37 51° 151° (SSE) 4,355 - -49.3°
Exits shadow 05:31:30 36° 104° (ESE) 5,037 13.3 -49.5°
Drops below altitude 10° 05:43:08 10° 85° (E) 6,626 14.3 -49.6°
Sets 05:47:58 0° 81° (E) 7,403 14.6 -49.6°
